[TLELIST] Archives

 

[list_settings.list_name] Current TLEs

January 27th 2009 PST

HST 1 20580U 90037B 09026.17696975 .00000313 00000-0 11353-4 0 3135 2 20580 028.4706 308.7564 0003708 228.0485 131.9789 15.00450102828503 ISS (ZARYA) 1 25544U 98067A 09025.90753036 .00009376 00000-0 79134-4 0 1400 2 25544 051.6429 315.3294 0007688 309.6325 094.9788 15.70580475583578 CXO 1 25867U 99040B 09023.66666667 -.00000091 +00000-0 +10000-3 0 02878 2 25867 064.7867 074.0510 7254817 276.7793 354.1130 00.37806129004467 ____________________________________________________________________ These 2-Line ...Continue Reading

[list_settings.list_name] Current TLEs

January 26th 2009 PST

HST 1 20580U 90037B 09024.91316901 .00000311 00000-0 11156-4 0 3121 2 20580 028.4706 316.9996 0003748 215.1737 144.8602 15.00449698828318 ISS (ZARYA) 1 25544U 98067A 09024.56037037 .00010028 00000-0 84372-4 0 1324 2 25544 051.6435 322.2123 0007747 303.8382 038.7599 15.70556068583351 CXO 1 25867U 99040B 09023.66666667 -.00000091 +00000-0 +10000-3 0 02878 2 25867 064.7867 074.0510 7254817 276.7793 354.1130 00.37806129004467 ____________________________________________________________________ These 2-Line ...Continue Reading

[list_settings.list_name] Current TLEs

January 25th 2009 PST

HST 1 20580U 90037B 09023.25027309 .00000318 00000-0 11718-4 0 3118 2 20580 028.4708 327.8439 0003756 197.2359 162.8102 15.00449296828063 ISS (ZARYA) 1 25544U 98067A 09023.54122685 .00010839 00000-0 90869-4 0 1255 2 25544 051.6440 327.4178 0007733 300.1003 036.4322 15.70537450583194 CXO 1 25867U 99040B 09023.66666667 -.00000091 +00000-0 +10000-3 0 02878 2 25867 064.7867 074.0510 7254817 276.7793 354.1130 00.37806129004467 ____________________________________________________________________ These 2-Line ...Continue Reading

[list_settings.list_name] Current TLEs

January 24th 2009 PST

HST 1 20580U 90037B 09022.18601970 .00000310 00000-0 11118-4 0 3106 2 20580 028.4706 334.7858 0003769 187.4040 172.6493 15.00448878827904 ISS (ZARYA) 1 25544U 98067A 09021.90854292 +.00011432 +00000-0 +95712-4 0 01172 2 25544 051.6436 335.7578 0007718 292.9948 166.3593 15.70502208582942 CXO 1 25867U 99040B 09021.04166667 -.00000144 +00000-0 +10000-3 0 02861 2 25867 064.7779 074.1314 7248742 276.7863 356.7715 00.37806296004451 ____________________________________________________________________ These 2-Line ...Continue Reading

[list_settings.list_name] Current TLEs

January 23rd 2009 PST

HST 1 20580U 90037B 09022.18601970 .00000310 00000-0 11118-4 0 3106 2 20580 028.4706 334.7858 0003769 187.4040 172.6493 15.00448878827904 ISS (ZARYA) 1 25544U 98067A 09021.84369502 .00011494 00000-0 96209-4 0 1169 2 25544 051.6437 336.0886 0007724 292.4839 159.9890 15.70501054582935 CXO 1 25867U 99040B 09021.04166667 -.00000144 +00000-0 +10000-3 0 02861 2 25867 064.7779 074.1314 7248742 276.7863 356.7715 00.37806296004451 ____________________________________________________________________ These 2-Line ...Continue Reading

[list_settings.list_name] Current TLEs

January 22nd 2009 PST

HST 1 20580U 90037B 09021.12176560 .00000324 00000-0 12213-4 0 3091 2 20580 028.4707 341.7262 0003790 176.4795 183.5817 15.00448694827740 ISS (ZARYA) 1 25544U 98067A 09020.88911116 .00011103 00000-0 93195-4 0 1108 2 25544 051.6435 340.9647 0007755 288.2503 163.6017 15.70476493582781 CXO 1 25867U 99040B 09021.04166667 -.00000144 +00000-0 +10000-3 0 02861 2 25867 064.7779 074.1314 7248742 276.7863 356.7715 00.37806296004451 ____________________________________________________________________ These 2-Line ...Continue Reading

[list_settings.list_name] Current TLEs

January 21st 2009 PST

HST 1 20580U 90037B 09019.25932197 .00000319 00000-0 11771-4 0 3089 2 20580 028.4705 353.8808 0003878 159.6639 200.4104 15.00448076827466 ISS (ZARYA) 1 25544U 98067A 09019.66443287 .00011179 00000-0 93909-4 0 1040 2 25544 051.6435 347.2209 0007790 283.3836 079.8947 15.70448043582598 CXO 1 25867U 99040B 09018.41666667 -.00000100 +00000-0 +10000-3 0 02854 2 25867 064.7672 074.1943 7241290 276.8138 359.4076 00.37805015004445 ____________________________________________________________________ These 2-Line ...Continue Reading

[list_settings.list_name] Current TLEs

January 20th 2009 PST

HST 1 20580U 90037B 09017.33036055 +.00000291 +00000-0 +96337-5 0 03186 2 20580 028.4705 006.4606 0003834 140.3851 219.7016 15.00447313827174 ISS (ZARYA) 1 25544U 98067A 09018.53673810 .00011337 00000-0 95262-4 0 973 2 25544 051.6434 352.9819 0007813 279.1391 184.3598 15.70422260582410 CXO 1 25867U 99040B 09018.41666667 -.00000100 +00000-0 +10000-3 0 02854 2 25867 064.7672 074.1943 7241290 276.8138 359.4076 00.37805015004445 ____________________________________________________________________ These 2-Line ...Continue Reading

[list_settings.list_name] Current TLEs

January 19th 2009 PST

HST 1 20580U 90037B 09018.19506749 .00000301 00000-0 10407-4 0 3076 2 20580 028.4704 000.8215 0003838 149.5744 210.5067 15.00447612827305 ISS (ZARYA) 1 25544U 98067A 09018.21402072 .00011381 00000-0 95648-4 0 931 2 25544 051.6432 354.6308 0007786 277.4236 160.3645 15.70414695582362 CXO 1 25867U 99040B 09015.75000000 +.00000002 +00000-0 +10000-3 0 02840 2 25867 064.7511 074.2484 7235155 276.8575 356.3235 00.37805437004436 ____________________________________________________________________ These 2-Line ...Continue Reading

[list_settings.list_name] Current TLEs

January 18th 2009 PST

HST 1 20580U 90037B 09016.33262167 .00000284 00000-0 91227-5 0 3062 2 20580 028.4705 012.9695 0003803 130.0522 230.0402 15.00447010827024 ISS (ZARYA) 1 25544U 98067A 09016.49833955 .00015273 00000-0 12682-3 0 825 2 25544 051.6425 003.3946 0007863 270.4490 181.3573 15.70379309582096 CXO 1 25867U 99040B 09015.75000000 +.00000002 +00000-0 +10000-3 0 02840 2 25867 064.7511 074.2484 7235155 276.8575 356.3235 00.37805437004436 ____________________________________________________________________ These 2-Line ...Continue Reading
  • This mailing list is a public mailing list - anyone may join or leave, at any time.
  • This mailing list is announce-only.

International Space Station (ISS) / Hubble Space Telescope (HST) / Chandra X-Ray Observatory Orbital Data via EMAIL

Privacy Policy:

Private list